Weather History for Lakeview AWS, OR

Change the Weather History Date:

Sunday, June 2, 2013

  Actual Average Record
Temperature  
Mean Temperature 58 °F -  
Max Temperature 73 °F 70 °F 88 °F (1970)
Min Temperature 44 °F 41 °F 27 °F (1929)
Degree Days  
Heating Degree Days 6    
Growing Degree Days 8 (Base 50)    
Moisture  
Dew Point 37 °F    
Average Humidity 45    
Maximum Humidity 67    
Minimum Humidity 21    
Precipitation  
Precipitation 0.00 in - - ()
Sea Level Pressure  
Sea Level Pressure 29.99 in    
Wind  
Wind Speed 12 mph (North)    
Max Wind Speed 17 mph    
Max Gust Speed 23 mph    
Visibility 10 miles    
Events      
Averages and records for this station are not official NWS values.
T = Trace of Precipitation, MM = Missing Value Source: NWS Daily Summary

Daily Weather History Graph

Daily Weather History Graph

Search for Another Location

Airport:

Trip Planner

Search our weather history database for the weather conditions in past years. The results will help you decide how hot, cold, wet, or windy it might be!

Date:

Astronomy

Jun. 02, 2013 Rise Set
Actual Time 5:27 AM PDT 8:32 PM PDT
Civil Twilight 4:53 AM PDT 9:06 PM PDT
Nautical Twilight 4:10 AM PDT 9:49 PM PDT
Astronomical Twilight 3:19 AM PDT 10:41 PM PDT
Moon 2:02 AM PDT (6/2) 3:02 PM PDT (6/2)
Length of Visible Light 16h 12m
Length of Day
15h 04m
Waning Crescent, 30% of the Moon is Illuminated
Jun 2
Waning Crescent
Jun 8
New
Jun 16
First Quarter
Jun 23
Full
Jun 29
Last Quarter

Hourly Weather History & Observations

Time (PDT) Temp. Windchill Dew Point Humidity Pressure Visibility Wind Dir Wind Speed Gust Speed Precip Events Conditions
12:15 AM 55.4 °F - 35.6 °F 47% 30.05 in 10.0 mi North 9.2 mph - N/A   Clear
12:35 AM 53.6 °F - 37.4 °F 54% 30.05 in 10.0 mi North 8.1 mph - N/A   Clear
12:55 AM 53.6 °F - 37.4 °F 54% 30.04 in 10.0 mi North 10.4 mph - N/A   Clear
1:15 AM 53.6 °F - 37.4 °F 54% 30.03 in 10.0 mi North 11.5 mph - N/A   Clear
1:35 AM 53.6 °F - 37.4 °F 54% 30.03 in 10.0 mi North 13.8 mph - N/A   Clear
1:55 AM 53.6 °F - 37.4 °F 54% 30.02 in 10.0 mi NNW 13.8 mph - N/A   Clear
2:15 AM 53.6 °F - 37.4 °F 54% 30.02 in 10.0 mi North 15.0 mph 21.9 mph N/A   Clear
2:35 AM 51.8 °F - 37.4 °F 58% 30.02 in 10.0 mi North 16.1 mph - N/A   Clear
2:55 AM 51.8 °F - 37.4 °F 58% 30.02 in 10.0 mi North 15.0 mph - N/A   Clear
3:15 AM 51.8 °F - 39.2 °F 62% 30.02 in 10.0 mi North 15.0 mph - N/A   Clear
3:35 AM 51.8 °F - 39.2 °F 62% 30.01 in 10.0 mi NNW 12.7 mph - N/A   Clear
3:55 AM 50.0 °F - 39.2 °F 66% 30.00 in 10.0 mi NNW 13.8 mph - N/A   Clear
4:15 AM 50.0 °F - 39.2 °F 66% 30.00 in 10.0 mi NNW 15.0 mph - N/A   Clear
4:35 AM 50.0 °F - 39.2 °F 66% 30.00 in 10.0 mi NNW 15.0 mph - N/A   Clear
4:55 AM 50.0 °F - 39.2 °F 66% 30.00 in 10.0 mi North 15.0 mph 21.9 mph N/A   Clear
5:15 AM 50.0 °F - 39.2 °F 66% 30.00 in 10.0 mi North 13.8 mph - N/A   Clear
5:35 AM 50.0 °F - 39.2 °F 66% 30.00 in 10.0 mi NNW 13.8 mph 19.6 mph N/A   Clear
5:55 AM 50.0 °F - 39.2 °F 66% 30.00 in 10.0 mi NNW 13.8 mph 19.6 mph N/A   Clear
6:15 AM 50.0 °F - 39.2 °F 66% 30.00 in 10.0 mi NNW 15.0 mph - N/A   Clear
6:35 AM 51.8 °F - 41.0 °F 67% 30.00 in 10.0 mi North 12.7 mph 19.6 mph N/A   Clear
6:55 AM 53.6 °F - 41.0 °F 62% 30.00 in 10.0 mi North 15.0 mph 20.7 mph N/A   Clear
7:15 AM 53.6 °F - 42.8 °F 67% 30.00 in 10.0 mi North 13.8 mph 20.7 mph N/A   Clear
7:35 AM 55.4 °F - 42.8 °F 63% 30.00 in 10.0 mi North 17.3 mph 20.7 mph N/A   Clear
7:55 AM 55.4 °F - 42.8 °F 63% 30.00 in 10.0 mi North 17.3 mph 23.0 mph N/A   Clear
8:15 AM 57.2 °F - 42.8 °F 59% 30.00 in 10.0 mi North 15.0 mph 21.9 mph N/A   Clear
8:35 AM 59.0 °F - 42.8 °F 55% 29.99 in 10.0 mi NNW 12.7 mph 18.4 mph N/A   Clear
8:55 AM 60.8 °F - 42.8 °F 52% 29.99 in 10.0 mi North 11.5 mph - N/A   Clear
9:15 AM 60.8 °F - 42.8 °F 52% 29.99 in 10.0 mi North 9.2 mph - N/A   Clear
9:35 AM 62.6 °F - 41.0 °F 45% 29.99 in 10.0 mi NNE 6.9 mph - N/A   Clear
9:55 AM 62.6 °F - 41.0 °F 45% 29.99 in 10.0 mi North 6.9 mph - N/A   Clear
10:15 AM 64.4 °F - 39.2 °F 40% 29.98 in 10.0 mi NNE 5.8 mph - N/A   Clear
10:35 AM 66.2 °F - 39.2 °F 37% 29.98 in 10.0 mi West 3.5 mph - N/A   Clear
10:55 AM 69.8 °F - 41.0 °F 35% 29.98 in 10.0 mi West 10.4 mph - N/A   Clear
11:15 AM 69.8 °F - 41.0 °F 35% 29.98 in 10.0 mi North 5.8 mph - N/A   Clear
11:35 AM 68.0 °F - 39.2 °F 35% 29.98 in 10.0 mi North 5.8 mph - N/A   Clear
11:55 AM 69.8 °F - 42.8 °F 38% 29.97 in 10.0 mi NNE 6.9 mph - N/A   Clear
12:15 PM 69.8 °F - 42.8 °F 38% 29.97 in 10.0 mi North 10.4 mph 16.1 mph N/A   Clear
12:35 PM 69.8 °F - 42.8 °F 38% 29.96 in 10.0 mi NE 6.9 mph 16.1 mph N/A   Clear
12:55 PM 69.8 °F - 42.8 °F 38% 29.96 in 10.0 mi North 9.2 mph - N/A   Clear
1:15 PM 69.8 °F - 44.6 °F 40% 29.96 in 10.0 mi NNE 10.4 mph 16.1 mph N/A   Clear
1:35 PM 71.6 °F - 44.6 °F 38% 29.96 in 10.0 mi North 13.8 mph - N/A   Clear
1:55 PM 71.6 °F - 44.6 °F 38% 29.96 in 10.0 mi North 11.5 mph 17.3 mph N/A   Clear
2:15 PM 71.6 °F - 44.6 °F 38% 29.96 in 10.0 mi North 15.0 mph 23.0 mph N/A   Clear
2:35 PM 71.6 °F - 42.8 °F 35% 29.96 in 10.0 mi North 13.8 mph 20.7 mph N/A   Clear
2:55 PM 71.6 °F - 41.0 °F 33% 29.96 in 10.0 mi NNW 12.7 mph 20.7 mph N/A   Clear
3:15 PM 71.6 °F - 39.2 °F 31% 29.96 in 10.0 mi North 13.8 mph 23.0 mph N/A   Clear
3:35 PM 71.6 °F - 37.4 °F 29% 29.96 in 10.0 mi North 13.8 mph 20.7 mph N/A   Clear
3:55 PM 73.4 °F - 35.6 °F 25% 29.96 in 10.0 mi North 12.7 mph 19.6 mph N/A   Clear
4:15 PM 73.4 °F - 35.6 °F 25% 29.95 in 10.0 mi North 15.0 mph 21.9 mph N/A   Clear
4:35 PM 73.4 °F - 33.8 °F 23% 29.96 in 10.0 mi North 12.7 mph 16.1 mph N/A   Clear
4:55 PM 73.4 °F - 33.8 °F 23% 29.95 in 10.0 mi NNW 12.7 mph 23.0 mph N/A   Clear
5:15 PM 71.6 °F - 33.8 °F 25% 29.95 in 10.0 mi North 17.3 mph 20.7 mph N/A   Clear
5:35 PM 71.6 °F - 30.2 °F 22% 29.95 in 10.0 mi NNE 15.0 mph 19.6 mph N/A   Clear
5:55 PM 71.6 °F - 30.2 °F 22% 29.95 in 10.0 mi NNE 16.1 mph 21.9 mph N/A   Clear
6:15 PM 71.6 °F - 30.2 °F 22% 29.95 in 10.0 mi North 15.0 mph 21.9 mph N/A   Clear
6:35 PM 69.8 °F - 28.4 °F 21% 29.95 in 10.0 mi North 13.8 mph 18.4 mph N/A   Clear
6:55 PM 69.8 °F - 28.4 °F 21% 29.96 in 10.0 mi North 13.8 mph 20.7 mph N/A   Clear
7:15 PM 68.0 °F - 28.4 °F 23% 29.96 in 10.0 mi North 12.7 mph 18.4 mph N/A   Clear
7:35 PM 66.2 °F - 30.2 °F 26% 29.96 in 10.0 mi North 11.5 mph - N/A   Clear
7:55 PM 64.4 °F - 32.0 °F 30% 29.97 in 10.0 mi North 12.7 mph - N/A   Clear
8:15 PM 62.6 °F - 33.8 °F 34% 29.97 in 10.0 mi North 11.5 mph - N/A   Clear
8:35 PM 59.0 °F - 32.0 °F 36% 29.98 in 10.0 mi North 11.5 mph - N/A   Clear
8:55 PM 57.2 °F - 32.0 °F 38% 29.99 in 10.0 mi North 11.5 mph - N/A   Clear
9:15 PM 53.6 °F - 33.8 °F 47% 29.99 in 10.0 mi North 12.7 mph - N/A   Clear
9:35 PM 55.4 °F - 32.0 °F 41% 30.01 in 10.0 mi North 10.4 mph - N/A   Clear
9:55 PM 51.8 °F - 32.0 °F 47% 30.02 in 10.0 mi NNW 8.1 mph - N/A   Clear
10:15 PM 50.0 °F - 32.0 °F 50% 30.02 in 10.0 mi North 9.2 mph - N/A   Clear
10:35 PM 48.2 °F - 32.0 °F 54% 30.03 in 10.0 mi North 8.1 mph - N/A   Clear
10:55 PM 46.4 °F 42.4 °F 33.8 °F 62% 30.03 in 10.0 mi North 8.1 mph - N/A   Clear
11:15 PM 44.6 °F 39.7 °F 30.2 °F 57% 30.04 in 10.0 mi NNW 9.2 mph - N/A   Clear
11:35 PM 46.4 °F 41.1 °F 30.2 °F 53% 30.04 in 10.0 mi North 11.5 mph - N/A   Clear
11:55 PM 48.2 °F - 28.4 °F 46% 30.04 in 10.0 mi North 8.1 mph - N/A   Clear